Regional Weather Roundup
Issued by NWS Sioux Falls, SD

Home | Current Version | Previous Version | Text Only | Print | Product List | Glossary Off
Versions: 1 2 3 4 5 6 7 8 9 10 11 12 13 14 15 16 17 18 19 20 21 22 23 24 25 26 27 28 29 30 31 32 33 34 35 36 37 38 39 40 41 42 43 44 45 46 47 48 49 50

000
ASUS43 KFSD 281510
RWRFSD

WEATHER ROUNDUP FOR SE SOUTH DAKOTA/SW MINNESOTA/NW IOWA
NATIONAL WEATHER SERVICE SIOUX FALLS SD
1000 AM CDT THU AUG 28 2014

NOTE: "FAIR" INDICATES FEW OR NO CLOUDS BELOW 12,000 FEET WITH NO
SIGNIFICANT WEATHER AND OR OBSTRUCTIONS TO VISIBILITY.


SDZ038>040-050-052>070-281600-
SOUTHEAST SOUTH DAKOTA

CITY           SKY/WX    TMP DP  RH WIND       PRES   REMARKS
CHAMBERLAIN    CLOUDY    67  67  98 E6        29.91S
HURON          RAIN      67  66  97 E8        29.91F FOG
MADISON        CLOUDY    64  64 100 SE9G16    29.97S
MITCHELL       LGT RAIN  69  69 100 SE12      29.92S
SIOUX FALLS    LGT RAIN  68  66  93 SE10      29.95S
WINNER         CLOUDY    69  67  93 E5        29.91S
YANKTON        CLOUDY    68  66  94 SE9       29.93S
$$

MNZ071-072-080-081-089-090-097-098-281600-
SOUTHWEST MINNESOTA

CITY           SKY/WX    TMP DP  RH WIND       PRES   REMARKS
FAIRMONT       CLOUDY    63  59  88 SE9       30.02F
JACKSON        LGT RAIN  64  61  88 SE12      30.01F
LUVERNE        DRIZZLE   68  64  88 SE10      29.98S
MARSHALL       CLOUDY    64  61  88 SE10      29.99S
MONTEVIDEO     CLOUDY    64  63  94 S8        30.01F
PIPESTONE      LGT RAIN  66  64  94 SE8       29.98S
REDWOOD FALLS  CLOUDY    66  60  81 SE12      30.01F
TRACY          DRIZZLE   66  64  94 SE7       30.00F
WINDOM         LGT RAIN  64  63  94 E9        30.01F
WORTHINGTON    CLOUDY    64  64 100 E8        30.00F
$$

IAZ001>003-012>014-020>022-031-032-NEZ013-014-SDZ071-281600-
NORTHWEST IOWA

CITY           SKY/WX    TMP DP  RH WIND       PRES   REMARKS
DENISON        CLOUDY    70  70 100 SE14G21   29.94S
ESTHERVILLE    LGT RAIN  64  63  96 E9        30.00F FOG
LE MARS        CLOUDY    68  68 100 SE9       29.95S
ORANGE CITY    DRIZZLE   70  66  88 SE7       29.96S
SHELDON        CLOUDY    66  66 100 E7        29.97S
SIOUX CITY     CLOUDY    71  68  90 SE10      29.93F
SPENCER        LGT RAIN  66  64  93 SE10      29.99F
STORM LAKE     HVY RAIN  66  66 100 SE12G18   29.99R VSB 3/4
$$

ABBREVIATIONS USED IN REMARKS
   TC - TEMPERATURE IN CELSIUS
  WCI - WIND CHILL INDEX
   HX - HEAT INDEX
  VSB - VISIBILITY




USA.gov is the U.S. government's official web portal to all federal, state and local government web resources and services.